This demonstration page uses our WeatherBlox Daily Observations layout. Learn more.

Left ArrowRight Arrow

39.01783, -85.05884

Hourly Observations for August 21, 2015

Temp ( °F °C ) Dew Point ( °F °C ) Humidity (%) Winds ( mph kmh ) Pressure ( in mb ) Visibility ( mi km ) Precip ( " mm )
12:52 am 00:52 Partly Cloudy 62 16.7 57 13.9 84 84 N N/A 30.07 1018 10 16.0934 N/A
1:52 am 01:52 Mostly Cloudy 58 14.4 57 13.9 97 97 N N/A 30.07 1018 10 16.0934 N/A
2:52 am 02:52 Partly Cloudy 57 13.9 56 13.3 96 96 S 3 6 30.07 1018 10 16.0934 N/A
3:52 am 03:52 Partly Cloudy 59 15 56 13.3 90 90 N N/A 30.07 1018 10 16.0934 N/A
4:52 am 04:52 Mostly Clear 58 14.4 55 12.8 90 90 N N/A 30.07 1018 10 16.0934 N/A
5:52 am 05:52 Mostly Clear 60 15.6 57 13.9 90 90 N N/A 30.09 1019 10 16.0934 N/A
6:52 am 06:52 Partly Cloudy 56 13.3 55 12.8 97 97 N N/A 30.11 1020 10 16.0934 N/A
7:52 am 07:52 Partly Cloudy 59 15 57 13.9 93 93 N N/A 30.13 1020 7 11.26538 N/A
8:52 am 08:52 Partly Cloudy 66 18.9 60 15.6 81 81 N N/A 30.14 1021 10 16.0934 N/A
9:52 am 09:52 Mostly Cloudy 71 21.7 56 13.3 59 59 VRB 3 6 30.15 1021 10 16.0934 N/A
10:52 am 10:52 Mostly Cloudy 74 23.3 53 11.7 48 48 E 7 11 30.16 1021 10 16.0934 N/A
11:52 am 11:52 Mostly Cloudy 74 23.3 49 9.4 41 41 N N/A 30.16 1021 10 16.0934 N/A
12:52 pm 12:52 Mostly Cloudy 76 24.4 50 10 40 40 ENE 3 6 30.16 1021 10 16.0934 N/A
1:52 pm 13:52 Mostly Cloudy 78 25.6 51 10.6 39 39 VRB 5 7 30.15 1021 10 16.0934 N/A
2:52 pm 14:52 Mostly Cloudy 78 25.6 49 9.4 36 36 VRB 3 6 30.14 1021 10 16.0934 N/A
3:52 pm 15:52 Partly Cloudy 78 25.6 50 10 37 37 N N/A 30.12 1020 10 16.0934 N/A
4:52 pm 16:52 Partly Cloudy 80 26.7 52 11.1 38 38 NNW 6 9 30.11 1020 10 16.0934 N/A
5:52 pm 17:52 Partly Cloudy 79 26.1 52 11.1 39 39 W 3 6 30.09 1019 10 16.0934 N/A
6:52 pm 18:52 Mostly Sunny 78 25.6 54 12.2 43 43 N N/A 30.08 1019 10 16.0934 N/A
7:52 pm 19:52 Mostly Sunny 76 24.4 53 11.7 45 45 N N/A 30.09 1019 10 16.0934 N/A
8:52 pm 20:52 Mostly Clear 74 23.3 52 11.1 46 46 NNW 5 7 30.09 1019 10 16.0934 N/A
9:52 pm 21:52 Mostly Clear 65 18.3 57 13.9 76 76 S 3 6 30.11 1020 10 16.0934 N/A
10:52 pm 22:52 Mostly Clear 66 18.9 55 12.8 68 68 ESE 3 6 30.12 1020 10 16.0934 N/A
11:52 pm 23:52 Clear 66 18.9 54 12.2 65 65 N N/A 30.12 1020 10 16.0934 N/A

Powered by AerisWeather